This demonstration page uses our WeatherBlox Daily Observations layout. Learn more.

Left ArrowRight Arrow

41.12389, -100.76542

Hourly Observations for May 16, 2017

Temp ( °F °C ) Dew Point ( °F °C ) Humidity (%) Winds ( mph kmh ) Pressure ( in mb ) Visibility ( mi km ) Precip ( " mm )
12:15 am 00:15 Mostly Cloudy with Thunderstorms 63 17.2 56 13.3 78 78 SSE 16 26 29.53 1000 10 16 0.00 0.03
12:42 am 00:42 Cloudy with Nearby Thunderstorms 61 16.1 56 13.3 84 84 ESE 13 20 29.50 999 10 16 0.07 1.78
12:53 am 00:53 Mostly Cloudy 61 16.1 55 12.8 81 81 ESE 21 33 29.55 1001 10 16 0.07 1.78
1:53 am 01:53 Clear 59 15 55 12.8 87 87 ESE 15 24 29.53 1000 10 16 0.00 0.00
2:53 am 02:53 Clear 61 16.1 56 13.3 84 84 SE 13 20 29.51 999 10 16 0.00 0.00
3:53 am 03:53 Clear 61 16.1 57 13.9 87 87 SE 14 22 29.49 999 10 16 0.00 0.00
4:53 am 04:53 Clear 58 14.4 56 13.3 93 93 E 8 13 29.51 999 10 16 0.00 0.00
5:53 am 05:53 Mostly Clear 57 13.9 55 12.8 93 93 E 3 6 29.54 1000 10 16 0.00 0.00
6:53 am 06:53 Sunny 55 12.8 54 12.2 96 96 E 3 6 29.53 1000 10 16 0.00 0.00
7:53 am 07:53 Sunny 59 15 57 13.9 93 93 Calm 29.54 1000 10 16 0.00 0.00
8:53 am 08:53 Sunny 65 18.3 58 14.4 78 78 Calm 29.51 999 10 16 0.00 0.00
9:53 am 09:53 Sunny 67 19.4 59 15 76 76 W 6 9 29.53 1000 10 16 0.00 0.00
10:53 am 10:53 Sunny 70 21.1 60 15.6 71 71 NW 12 19 29.54 1001 10 16 0.00 0.00
11:53 am 11:53 Sunny 75 23.9 61 16.1 62 62 NW 13 20 29.54 1000 10 16 0.00 0.00
12:53 pm 12:53 Sunny 78 25.6 57 13.9 48 48 NW 10 17 29.53 1000 10 16 0.00 0.00
1:53 pm 13:53 Sunny 80 26.7 58 14.4 47 47 N 12 19 29.54 1000 10 16 0.00 0.00
2:53 pm 14:53 Sunny 81 27.2 55 12.8 41 41 VRB 6 9 29.52 1000 10 16 0.00 0.00
3:53 pm 15:53 Sunny 81 27.2 53 11.7 38 38 NNE 7 11 29.49 999 10 16 0.00 0.00
4:53 pm 16:53 Mostly Sunny 77 25 53 11.7 43 43 E 8 13 29.48 998 10 16 0.00 0.00
5:09 pm 17:09 Partly Cloudy with Nearby Thunderstorms 73 22.8 58 14.4 59 59 E 9 15 29.41 996 10 16 0.00 0.03
5:24 pm 17:24 Mostly Cloudy with Light Rain 71 21.7 57 13.9 61 61 E 10 17 29.41 996 10 16 0.00 0.03
5:53 pm 17:53 Mostly Sunny 77 25 51 10.6 40 40 Calm 29.43 997 10 16 0.02 0.51
6:53 pm 18:53 Sunny 74 23.3 57 13.9 56 56 ENE 15 24 29.42 996 10 16 0.00 0.00
7:53 pm 19:53 Sunny 71 21.7 59 15 66 66 E 9 15 29.38 995 10 16 0.00 0.00
8:26 pm 20:26 Mostly Cloudy with Nearby Thunderstorms 70 21.1 59 15 68 68 ESE 16 26 29.35 994 10 16 0.00 0.00
8:42 pm 20:42 Cloudy with Thunderstorms 70 21.1 60 15.6 71 71 E 16 26 29.35 994 10 16 0.00 0.00
8:53 pm 20:53 Cloudy with Thunderstorms 69 20.6 60 15.6 73 73 SSW 15 24 29.52 1000 10 16 0.00 0.03
8:58 pm 20:58 Windy with Storms Likely 62 16.7 56 13.3 80 80 W 28 44 29.50 999 10 16 0.00 0.03
9:05 pm 21:05 Cloudy with Strong Thunderstorms 56 13.3 54 12.2 93 93 WNW 10 17 29.50 999 2 2 0.06 1.52
9:08 pm 21:08 Cloudy with Strong Thunderstorms 55 12.8 52 11.1 90 90 N 10 17 29.50 999 1 2 0.13 3.30
9:15 pm 21:15 Cloudy with Thunderstorms 55 12.8 51 10.6 87 87 NNE 20 31 29.50 999 2 3 0.42 10.67
9:23 pm 21:23 Cloudy with Thunderstorms 55 12.8 52 11.1 90 90 N 12 19 29.50 999 10 16 0.43 10.92
9:45 pm 21:45 Cloudy with Nearby Thunderstorms 55 13 N/A N/A NNE 7 11 29.53 1000 10 16 0.44 11.18
9:53 pm 21:53 Cloudy with Nearby Thunderstorms 55 13 N/A N/A ENE 8 13 29.52 1000 8 13 0.44 11.18
10:26 pm 22:26 Cloudy with Rain 55 13 N/A N/A NNE 8 13 29.50 999 4 6 0.13 3.30
10:53 pm 22:53 Cloudy with Light Rain 55 12.8 46 7.8 72 72 N 8 13 29.54 1001 10 16 0.19 4.83
11:53 pm 23:53 Cloudy with Light Rain 55 12.8 39 3.9 55 55 NE 16 26 29.52 1000 10 16 0.09 2.29

Powered by AerisWeather